sat.trackr.live / text

‹ back to catalog

KUIPER-00225

NORAD 67784 · 2026-030W

PAYLOAD ACTIVE UNKNOWN

§ Identity

Operator
Country
US
Launch date
2026-02-12
Launch site
FRGUI
Launch vehicle
Mass (kg)
RCS (m²)

External: N2YO · Heavens-Above · Gunter

§ Orbital elements

Epoch: 2026-09-20T17:28:18.187392Z

Period
97.30 min
Inclination
51.8982°
Eccentricity
0.0000626
Mean motion
14.79927265 rev/d
Perigee alt
629.1 km
Apogee alt
630.0 km
Semi-major
7,007.7 km
B*
2.9975e-4
RAAN
55.7419°
Arg perigee
109.2713°
Mean anomaly
250.8317°
Rev number
3,426

§ Raw data

KUIPER-002251 67784U 26030W   26263.72798828  .00002064  00000+0  29975-3 0  99992 67784  51.8982  55.7419 0000626 109.2713 250.8317 14.79927265 34268

JSON: /api/v1/satellites/67784 · /tle

For live sub-satellite position, see the globe view (requires WebGL).

§ Visibility from observer

Set your observer location to see the next 7 days of passes ≥ 10°. The values pass through the URL so the page stays shareable.

No JS? Fill the form by hand. The geolocation button needs JavaScript.